Showing default

WILDFIRE 3, 57758

Orbit data source: Space-Track

WILDFIRE 3, 57758 is a payload satellite owned by SDA (US) in LEO that was launched on Sat, 02 Sep 2023 UTC via an FALCON 9 launch vehicle from the Air Force Western Test Range (AFWTR). Payload-class satellites include a variety of spacecraft equipped with specific instruments for various scientific and technological missions. These include communications satellites like Starlink; space stations such as the ISS; scientific satellites like the Hubble; Earth observation satellites from companies like Planet Labs, Umbra, and HawkEye 360; GPS; miniature CubeSats for education and research; and military/defense satellites.

Loading next visibility...
Identifier
57758, 2023-133C
Orbit
LEO
Country
Flag of USUS
Related business
Manufacturer
TYVAK/LMSSD
Mission
Operational Defense Communications
Bus & Motor
MAVERICKS, Unknown motor
Mass
~300 kg wet, ~300 kg dry
Launch date (UTC)
2023-09-02 (3 years ago)
Launch vehicle
FALCON 9
Launch site
Air Force Western Test Range (AFWTR)
Object type
Payload
Rocket body
Debris
Shape & HBR
Box + 2 Pan, 1.3 m
Radar Cross Section
0.713 m², Large (>1 m²)

Expand to show TLE details & history
Last TLE update: 2 days ago

TLE from 2 days ago
0 WILDFIRE 3
1 57758U 23133C   26171.27313750  .00000082  00000-0  61631-4 0  9990
2 57758  80.9967   3.0101 0008441 352.5642   7.5389 13.86279908141520
Epoch: 2026-06-20T06:33Z
TLE epoch observation values (Epoch: 2026-06-20T06:33:19.079Z)
Latitude
0.00008°
Longitude
-3.80952°
Altitude
938.429 km
Speed
7.386 km/s
True Right ascension
00h 12m 02s
True Declination
0° 00' 00"
Sunlit
Object was in daylight at epoch
Visualization orbit readout
Latitude
Unknown
Longitude
Unknown
Altitude
Unknown
Speed
Unknown
Apparent Right ascension
Unknown
Apparent Declination
Unknown
Sunlit
N/A
Visualization observer readout
Local Sidereal Time
21:40:37
Azimuth
Unknown
Elevation
Unknown
Doppler factor
Unknown
Orbital elements
Apogee altitude
945.091 km
Perigee altitude
932.738 km
Semi-major axis
7,317.052 km
Eccentricity
0.00084
Inclination
80.9967°
RAAN
3.0101°
Arg. of periapsis
352.5642°
True anomaly
7.5516°
Mean anomaly
7.5389°
Eccentric anomaly
7.54525°
Mean motion
3.46768 °/min
Orbital period
103.82 mins
BSTAR
0.000061631
Loading maneuver chart data...
Computing Atmospheric mass density...
Loading historical data...
Loading historical data...
Loading historical data...
Loading historical data...
Loading historical data...
Loading historical data...
Loading historical data...

Documentation

Showing up to 5 results
|